[[{"header":{"parameterUnit":"m.s-1","parameterCategory":2,"la1":30.2991,"la2":30.254,"lo1":-89.0895,"lo2":-89.0444,"dy":0.0017,"dx":0.0017,"nx":28,"ny":28,"refTime":"2024-10-03T09:00:00:Z","depth":"0","parameterNumber":2,"parameterNumberName":"U-component_of_CURRENTS"},"data":[0,0,0,0,0,0,0,0,0,0,0,0,0,0,0,0,0,0,0,0,0,0,0,0,0,0,0,0,0,0,0,0,0,0,0,0,0,0,0,0,0,0,0,0,0,0,0,0,0,0,0,0,0,0,0,0,0,0,0.1446,0.1445,0,0.1398,0.1397,0.1397,0.1363,0.1363,0.1362,0.1362,0.139,0.1391,0.1392,0,0,0,0,0,0,0,0,0,0,0,0,0,0.1602,0.1599,0.1446,0.1445,0.1444,0.1398,0.1397,0.1397,0.1363,0.1363,0.1362,0.1362,0.139,0.1391,0.1393,0,0,0,0,0,0,0,0,0,0,0,0,0,0.1544,0.1598,0.1446,0.1421,0.1418,0.1398,0.1397,0.1397,0.1363,0.1363,0.1362,0.1361,0.1389,0.1391,0.1393,0.1416,0,0,0.1398,0.1399,0,0,0,0,0,0,0,0,0.1547,0.1538,0.1425,0.1422,0.1419,0.1384,0.1463,0.1406,0.1364,0.1386,0.1362,0.1361,0.1395,0.1396,0.139,0.1418,0.1419,0.1398,0.1399,0.14,0.1401,0,0,0,0,0,0,0,0.1551,0.1541,0.1429,0.1424,0.1421,0.1443,0.1434,0.1452,0.1398,0.1384,0.1381,0.1373,0.1394,0.1388,0.139,0.1419,0.1398,0.14,0.1401,0.1401,0.1517,0.1519,0,0,0,0,0,0,0.1548,0.1544,0.143,0.1427,0.1481,0.1441,0.143,0.1398,0.1395,0.1393,0.1373,0.1371,0.1385,0.1388,0.1391,0.1471,0.14,0.1402,0.1403,0.1515,0.1518,0.152,0,0,0,0,0,0,0.1552,0.1538,0.1432,0.1485,0.1473,0.1438,0.1402,0.1397,0.1391,0.1386,0.1386,0.1373,0.1385,0.1389,0.1422,0.147,0.1402,0.1404,0.1513,0.1516,0.1519,0.1597,0,0,0,0,0,0,0.1556,0.1539,0.153,0.1483,0.1469,0.1425,0.1402,0.1396,0.1386,0.1383,0.1386,0.1387,0.1385,0.142,0.1424,0.1471,0.1405,0.151,0.1514,0.1518,0.1592,0.1602,0.1611,0,0,0,0,0,0.1561,0.1539,0.1529,0.1517,0.1452,0.1425,0.1421,0.1396,0.1387,0.1389,0.1399,0.1387,0.1447,0.1422,0.1427,0.1476,0.1508,0.1513,0.1518,0.1587,0.16,0.1611,0,0,0,0,0,0,0.16,0.1532,0.1521,0.1478,0.146,0.1418,0.1413,0.1402,0.1409,0.1409,0.1409,0.1412,0.1462,0.1457,0.143,0.1521,0.1478,0.1484,0.153,0.1542,0.1551,0.1557,0.1407,0,0,0,0,0,0.1606,0.1576,0.1525,0.1501,0.1482,0.1453,0.1444,0.1428,0.1419,0.142,0.1426,0.1446,0.1485,0.1501,0.1522,0.1569,0.1588,0.1605,0.1614,0.1623,0.1631,0.1716,0.1734,0.1535,0.1535,0.1535,0,0,0.1621,0.1578,0.1565,0.151,0.1486,0.1482,0.1446,0.1426,0.1448,0.1426,0.1462,0.1477,0.1504,0.1559,0.1581,0.1561,0.169,0.1629,0.1635,0.1639,0.1723,0.1742,0.1759,0.1538,0.1538,0.1537,0,0,0.1631,0.1588,0.1567,0.1556,0.152,0.1504,0.1502,0.1468,0.1474,0.1508,0.1512,0.1557,0.1592,0.1632,0.1657,0.1735,0.1737,0.1739,0.1797,0.1879,0.1897,0.1912,0.196,0.1979,0.1746,0.1746,0.1746,0,0.1655,0.1618,0.1566,0.1555,0.1558,0.1518,0.1525,0.153,0.1526,0.1553,0.153,0.1622,0.1637,0.1735,0.176,0.1761,0.179,0.1749,0.1893,0.1909,0.1923,0.1969,0.1989,0.1751,0.175,0.175,0.1749,0,0.1651,0.1642,0.163,0.1606,0.1607,0.1603,0.1597,0.1615,0.1619,0.1633,0.1711,0.1734,0.1789,0.181,0.1809,0.1926,0.1908,0.1895,0.1863,0.1948,0.1991,0.201,0.1757,0.1755,0.1754,0.1753,0,0,0.1653,0.1632,0.1633,0.1653,0.1637,0.1639,0.1681,0.1712,0.1766,0.1775,0.1856,0.1917,0.1916,0.1944,0.1955,0.2025,0.215,0.2003,0.2005,0.205,0.2316,0.2184,0.2192,0.2164,0.2168,0.2171,0.2304,0,0.1672,0.1678,0.1661,0.1708,0.1719,0.1722,0.1774,0.1811,0.1844,0.1913,0.1949,0.2024,0.1972,0.2015,0.2072,0.2137,0.2205,0.2113,0.2228,0.2231,0.2103,0.2212,0.205,0.2145,0.2323,0.2326,0.2328,0,0.1675,0.1686,0.172,0.1779,0.1782,0.1812,0.1897,0.1938,0.2021,0.2054,0.2112,0.2133,0.223,0.2177,0.2312,0.2255,0.2291,0.2329,0.2335,0.2197,0.2135,0.209,0.2174,0.2083,0.2358,0.2356,0.2354,0,0.1709,0.1737,0.1772,0.1789,0.1837,0.1875,0.1907,0.1984,0.205,0.2149,0.221,0.229,0.2355,0.2414,0.2439,0.2405,0.258,0.2546,0.2461,0.2451,0.2327,0.2298,0.2333,0.2661,0.2661,0.266,0.266,0,0.1739,0.1781,0.1795,0.1821,0.1908,0.1915,0.2017,0.2069,0.2157,0.2251,0.2276,0.2365,0.2423,0.2499,0.2508,0.2529,0.2633,0.2494,0.2491,0.2345,0.2318,0.224,0.2216,0.2665,0.2664,0.2663,0.2662,0,0.1797,0.1787,0.185,0.1899,0.1925,0.199,0.2084,0.2166,0.2222,0.2347,0.2386,0.2474,0.2537,0.2559,0.2674,0.2618,0.2562,0.2641,0.2437,0.2405,0.2187,0.2173,0.2116,0.2076,0.2578,0.2576,0.2574,0,0.1831,0.186,0.1922,0.1966,0.1994,0.2079,0.2151,0.2212,0.229,0.2406,0.2476,0.2557,0.2581,0.2645,0.2576,0.2557,0.2493,0.2413,0.231,0.2171,0.2157,0.2056,0.2022,0.2191,0.2186,0.2182,0.2179,0,0.1933,0.1943,0.2002,0.2075,0.2142,0.2214,0.2298,0.236,0.2427,0.249,0.2549,0.2566,0.2553,0.2436,0.2383,0.235,0.2242,0.2326,0.2269,0.1927,0.174,0.1699,0.2092,0.2143,0.2147,0.215,0.2151,0.2153,0.203,0.2094,0.2143,0.2214,0.2267,0.2309,0.2336,0.2397,0.2461,0.2461,0.2538,0.2433,0.2311,0.2172,0.2144,0.1918,0.198,0.1819,0.1841,0.177,0.1639,0.1919,0.1898,0.19,0.1902,0.1904,0.1905,0,0.2156,0.2202,0.2279,0.232,0.2334,0.2348,0.2406,0.2372,0.2369,0.2343,0.2309,0.2059,0.1906,0.1771,0.1549,0.1453,0.1401,0.1406,0.1263,0.1281,0.1609,0.1494,0.1279,0.1279,0.1279,0.1279,0.1279,0.128,0.2229,0.2318,0.2336,0.2358,0.2352,0.2312,0.2302,0.2238,0.2169,0.1955,0.174,0.1644,0.1478,0.1283,0.1105,0.1085,0.1029,0.0915,0.1012,0.1254,0.1294,0.1333,0.1219,0.095,0.0949,0.0577,0.0574,0.0572]},{"header":{"parameterUnit":"m.s-1","parameterCategory":2,"la1":30.2991,"la2":30.254,"lo1":-89.0895,"lo2":-89.0444,"dy":0.0017,"dx":0.0017,"nx":28,"ny":28,"refTime":"2024-10-03T09:00:00:Z","depth":"0","parameterNumber":3,"parameterNumberName":"V-component_of_CURRENTS"},"data":[0,0,0,0,0,0,0,0,0,0,0,0,0,0,0,0,0,0,0,0,0,0,0,0,0,0,0,0,0,0,0,0,0,0,0,0,0,0,0,0,0,0,0,0,0,0,0,0,0,0,0,0,0,0,0,0,0,0,0.0163,0.0163,0,0.0171,0.0171,0.0171,0.0168,0.0168,0.0168,0.0167,0.016,0.016,0.016,0,0,0,0,0,0,0,0,0,0,0,0,0,0.0146,0.0146,0.0163,0.0163,0.0163,0.0171,0.0171,0.0172,0.0168,0.0168,0.0168,0.0167,0.016,0.016,0.016,0,0,0,0,0,0,0,0,0,0,0,0,0,0.0154,0.0147,0.0163,0.0162,0.0162,0.0171,0.0171,0.0172,0.0168,0.0168,0.0167,0.0167,0.016,0.016,0.016,0.0168,0,0,0.016,0.016,0,0,0,0,0,0,0,0,0.0154,0.0155,0.0162,0.0162,0.0162,0.0168,0.0163,0.0169,0.0168,0.0166,0.0167,0.0167,0.0161,0.0161,0.0164,0.0167,0.0167,0.016,0.016,0.016,0.016,0,0,0,0,0,0,0,0.0153,0.0155,0.0167,0.0162,0.0162,0.0162,0.0162,0.0164,0.0166,0.0167,0.0166,0.0166,0.0161,0.0164,0.0164,0.0167,0.016,0.016,0.016,0.016,0.0215,0.0217,0,0,0,0,0,0,0.0152,0.0154,0.0167,0.0167,0.0156,0.0162,0.0163,0.0167,0.0166,0.0166,0.0167,0.0166,0.0164,0.0164,0.0164,0.0211,0.016,0.016,0.016,0.0214,0.0216,0.0217,0,0,0,0,0,0,0.0151,0.0153,0.0166,0.016,0.0162,0.0163,0.0167,0.0167,0.017,0.0166,0.0165,0.0169,0.0164,0.0164,0.0179,0.0209,0.016,0.016,0.0212,0.0214,0.0216,0.0282,0,0,0,0,0,0,0.0151,0.0153,0.0155,0.016,0.0162,0.0178,0.0167,0.0168,0.0171,0.017,0.0168,0.0167,0.0164,0.0179,0.0179,0.0209,0.016,0.021,0.0213,0.0216,0.0278,0.0286,0.0293,0,0,0,0,0,0.015,0.016,0.0156,0.0157,0.0166,0.0179,0.018,0.018,0.0171,0.018,0.0183,0.0167,0.0196,0.018,0.018,0.021,0.0209,0.0212,0.0216,0.0274,0.0284,0.0292,0,0,0,0,0,0,0.0157,0.0161,0.0156,0.0167,0.0173,0.0178,0.0184,0.0181,0.019,0.0189,0.0182,0.0182,0.0209,0.0199,0.0181,0.0235,0.0202,0.0205,0.0246,0.0256,0.0263,0.0278,0.016,0,0,0,0,0,0.0159,0.0165,0.0169,0.0178,0.018,0.018,0.0184,0.0186,0.0193,0.0196,0.0198,0.0204,0.0223,0.0229,0.0238,0.0262,0.026,0.0283,0.0291,0.0297,0.031,0.0341,0.0352,0.0228,0.0228,0.0228,0,0,0.0165,0.0166,0.017,0.0179,0.0181,0.0205,0.0183,0.0193,0.0222,0.0194,0.023,0.0227,0.0234,0.0269,0.028,0.0264,0.033,0.0301,0.0307,0.0316,0.0345,0.0358,0.0368,0.023,0.023,0.0229,0,0,0.0186,0.0179,0.0195,0.0204,0.0211,0.0219,0.0222,0.0231,0.0242,0.0272,0.0267,0.0288,0.0303,0.0326,0.0337,0.0391,0.0367,0.0386,0.0438,0.0468,0.0478,0.0488,0.0491,0.0501,0.0391,0.0391,0.0391,0,0.0192,0.0215,0.0202,0.0224,0.024,0.0228,0.0261,0.0275,0.0292,0.0309,0.0293,0.0337,0.034,0.0396,0.0419,0.0411,0.0408,0.0402,0.0478,0.0487,0.0496,0.0497,0.0507,0.0395,0.0394,0.0394,0.0394,0,0.0232,0.0251,0.0261,0.0289,0.0304,0.0327,0.0345,0.0362,0.0369,0.0386,0.0428,0.0434,0.0459,0.0468,0.0463,0.0526,0.0498,0.0482,0.0455,0.0512,0.051,0.0518,0.04,0.0398,0.0397,0.0397,0,0,0.025,0.0284,0.0289,0.0311,0.0341,0.0358,0.0406,0.0448,0.0478,0.0496,0.054,0.0581,0.0566,0.0579,0.057,0.0602,0.0658,0.057,0.0569,0.0573,0.0704,0.0666,0.0671,0.065,0.0652,0.0654,0.0675,0,0.0289,0.0342,0.0353,0.0411,0.044,0.0449,0.0494,0.0526,0.0549,0.0586,0.0602,0.0638,0.0614,0.0621,0.0652,0.0665,0.0684,0.0652,0.0649,0.0649,0.0608,0.0682,0.0664,0.068,0.0683,0.0685,0.0686,0,0.0332,0.0361,0.0423,0.0469,0.0482,0.0516,0.0571,0.0607,0.0654,0.067,0.0702,0.0702,0.0761,0.0717,0.0774,0.0751,0.0733,0.0733,0.0733,0.0683,0.0628,0.0625,0.0695,0.064,0.0698,0.0697,0.0696,0,0.0354,0.0412,0.0462,0.0481,0.0532,0.056,0.0586,0.0634,0.0668,0.072,0.0748,0.0794,0.083,0.0831,0.0831,0.0805,0.0876,0.0836,0.0779,0.0775,0.0753,0.0744,0.0772,0.0862,0.0862,0.0862,0.0862,0,0.0394,0.0433,0.0473,0.0499,0.0552,0.0577,0.0632,0.0662,0.0712,0.0772,0.0785,0.0851,0.0864,0.0897,0.0866,0.0864,0.0904,0.0809,0.0793,0.0773,0.0765,0.071,0.0685,0.0863,0.0863,0.0863,0.0863,0,0.0409,0.0441,0.0492,0.0544,0.0562,0.0593,0.0648,0.0689,0.0733,0.081,0.0832,0.0919,0.0982,0.0963,0.0989,0.0923,0.088,0.0882,0.0846,0.0825,0.0702,0.0681,0.0723,0.0692,0.0828,0.0827,0.0826,0,0.0422,0.0451,0.0508,0.0535,0.0558,0.0605,0.0643,0.0693,0.0743,0.0867,0.0915,0.1001,0.1086,0.1095,0.1013,0.0945,0.089,0.0843,0.0792,0.0716,0.0681,0.0684,0.0655,0.0784,0.0783,0.0782,0.0782,0,0.0441,0.0459,0.0496,0.0547,0.059,0.0642,0.07,0.0744,0.0826,0.0907,0.1054,0.1139,0.1161,0.1136,0.1019,0.0951,0.0808,0.0824,0.0775,0.0684,0.0665,0.0618,0.0727,0.0776,0.0777,0.0777,0.0777,0.0778,0.0447,0.0474,0.0522,0.0565,0.0616,0.0687,0.0738,0.082,0.0921,0.107,0.1149,0.1278,0.1211,0.1083,0.0974,0.0745,0.078,0.0666,0.0656,0.0673,0.0626,0.0707,0.0716,0.0716,0.0716,0.0717,0.0717,0,0.0464,0.05,0.054,0.0607,0.0658,0.0687,0.0788,0.0858,0.0993,0.1137,0.1273,0.1291,0.1182,0.1022,0.0747,0.0603,0.0556,0.0534,0.0539,0.0521,0.0619,0.0597,0.0545,0.0545,0.0545,0.0545,0.0545,0.0545,0.0484,0.0527,0.0548,0.0633,0.0679,0.0771,0.0833,0.0956,0.1066,0.1233,0.1302,0.1361,0.1245,0.0867,0.0586,0.0503,0.0422,0.0414,0.0385,0.0441,0.0452,0.0463,0.0437,0.0353,0.0353,0.0291,0.029,0.0289]}],[{"header":{"parameterUnit":"m.s-1","parameterCategory":2,"la1":30.2991,"la2":30.254,"lo1":-89.0895,"lo2":-89.0444,"dy":0.0017,"dx":0.0017,"nx":28,"ny":28,"refTime":"2024-10-03T09:00:00:Z","depth":"2","parameterNumber":2,"parameterNumberName":"U-component_of_CURRENTS"},"data":[0,0,0,0,0,0,0,0,0,0,0,0,0,0,0,0,0,0,0,0,0,0,0,0,0,0,0,0,0,0,0,0,0,0,0,0,0,0,0,0,0,0,0,0,0,0,0,0,0,0,0,0,0,0,0,0,0,0,0.1078,0.1078,0,0.106,0.106,0.106,0.104,0.104,0.104,0.104,0.1052,0.1052,0.1053,0,0,0,0,0,0,0,0,0,0,0,0,0,0.1095,0.1095,0.1078,0.1078,0.1078,0.1061,0.106,0.106,0.104,0.104,0.104,0.104,0.1052,0.1052,0.1053,0,0,0,0,0,0,0,0,0,0,0,0,0,0.1082,0.1094,0.1078,0.1067,0.1066,0.1061,0.106,0.106,0.104,0.104,0.104,0.104,0.1051,0.1052,0.1053,0.1062,0,0,0.1055,0.1055,0,0,0,0,0,0,0,0,0.1083,0.1081,0.1069,0.1068,0.1067,0.1054,0.1071,0.1062,0.104,0.1048,0.104,0.1039,0.1056,0.1057,0.1051,0.1062,0.1063,0.1055,0.1055,0.1056,0.1056,0,0,0,0,0,0,0,0.1084,0.1082,0.1069,0.1069,0.1067,0.1063,0.1061,0.1069,0.1053,0.1048,0.1047,0.1047,0.1056,0.1051,0.1052,0.1063,0.1055,0.1056,0.1056,0.1056,0.111,0.1111,0,0,0,0,0,0,0.1089,0.1083,0.107,0.1069,0.1076,0.1063,0.1061,0.1057,0.1053,0.1052,0.1047,0.1046,0.1049,0.1051,0.1052,0.1115,0.1056,0.1056,0.1057,0.1109,0.111,0.1111,0,0,0,0,0,0,0.1089,0.1088,0.1071,0.1077,0.1075,0.1063,0.1059,0.1057,0.1059,0.1052,0.1052,0.1053,0.1049,0.1051,0.1069,0.1113,0.1057,0.1057,0.1108,0.1109,0.1111,0.1207,0,0,0,0,0,0,0.109,0.1088,0.1094,0.1077,0.1075,0.1074,0.1059,0.1056,0.106,0.1058,0.1057,0.1057,0.1049,0.1068,0.107,0.1113,0.1058,0.1107,0.1109,0.111,0.1202,0.1211,0.1219,0,0,0,0,0,0.109,0.1094,0.1094,0.1093,0.1081,0.1074,0.1073,0.1063,0.106,0.1064,0.1067,0.1058,0.1081,0.107,0.1071,0.1116,0.1106,0.1108,0.111,0.1198,0.1209,0.1219,0,0,0,0,0,0,0.11,0.1093,0.1092,0.1093,0.1089,0.1072,0.1074,0.1071,0.1074,0.1076,0.107,0.1071,0.11,0.109,0.1077,0.1133,0.1093,0.1095,0.1159,0.1169,0.1178,0.114,0.1058,0,0,0,0,0,0.1108,0.1112,0.1102,0.1104,0.1102,0.1092,0.1091,0.1086,0.1083,0.1084,0.1087,0.1093,0.111,0.1125,0.1124,0.1161,0.1156,0.1188,0.1197,0.1204,0.1173,0.1221,0.1232,0.1119,0.1119,0.1119,0,0,0.1113,0.111,0.1112,0.1108,0.1101,0.1105,0.109,0.109,0.1103,0.1087,0.111,0.1118,0.1121,0.1158,0.1172,0.116,0.124,0.1207,0.1214,0.1177,0.1225,0.1236,0.1246,0.112,0.112,0.112,0,0,0.1121,0.1121,0.1126,0.1126,0.1123,0.112,0.1124,0.1117,0.1125,0.1146,0.1145,0.117,0.1192,0.1207,0.1218,0.1269,0.1274,0.1286,0.1314,0.1364,0.1374,0.1382,0.1421,0.1432,0.1303,0.1303,0.1303,0,0.1134,0.1132,0.1127,0.1132,0.1136,0.113,0.1137,0.1146,0.1152,0.1167,0.116,0.1201,0.1209,0.1262,0.128,0.1289,0.1315,0.1284,0.1377,0.1385,0.1392,0.1429,0.144,0.1308,0.1307,0.1307,0.1306,0,0.1135,0.1145,0.1146,0.1154,0.1161,0.1163,0.1174,0.1191,0.1203,0.1212,0.1254,0.1266,0.1288,0.1315,0.1313,0.1379,0.1382,0.1379,0.1356,0.1409,0.1445,0.1455,0.1315,0.1313,0.1312,0.131,0,0,0.1139,0.1147,0.115,0.1157,0.1172,0.1173,0.1209,0.1233,0.1252,0.1278,0.1314,0.1349,0.1353,0.1361,0.1383,0.1424,0.1513,0.1427,0.1428,0.1472,0.1631,0.1544,0.1546,0.1547,0.1549,0.155,0.1649,0,0.1144,0.1153,0.1162,0.1182,0.1188,0.1205,0.1235,0.1262,0.1285,0.132,0.1354,0.1385,0.1378,0.1402,0.1446,0.1492,0.1537,0.1485,0.1564,0.1565,0.1486,0.1553,0.1401,0.1468,0.1658,0.166,0.1661,0,0.1141,0.115,0.1165,0.1193,0.1196,0.1214,0.1252,0.128,0.1334,0.1361,0.1404,0.1414,0.1483,0.1461,0.1566,0.1544,0.1579,0.1608,0.1614,0.1489,0.1493,0.1437,0.1477,0.1676,0.1675,0.1674,0.1673,0,0.1132,0.1155,0.1166,0.1173,0.1202,0.1222,0.1248,0.1292,0.1316,0.1391,0.1413,0.1484,0.154,0.1586,0.1633,0.1618,0.1739,0.1732,0.1683,0.1678,0.1532,0.151,0.1786,0.1786,0.1786,0.1785,0.1785,0,0.1126,0.1137,0.116,0.1165,0.1174,0.1216,0.1245,0.1279,0.1341,0.1378,0.1431,0.1473,0.1576,0.1642,0.1665,0.1706,0.1776,0.1678,0.1695,0.1562,0.1543,0.1694,0.1681,0.1789,0.1788,0.1787,0.1787,0,0.1113,0.1122,0.114,0.1172,0.1166,0.1185,0.1225,0.1262,0.1321,0.1377,0.1403,0.151,0.1611,0.1674,0.1783,0.1756,0.179,0.1782,0.161,0.1602,0.1687,0.1679,0.1736,0.1733,0.1731,0.173,0.1728,0,0.11,0.1105,0.1132,0.1128,0.1138,0.1165,0.1187,0.1248,0.1285,0.1384,0.1412,0.1526,0.1579,0.1696,0.1696,0.1722,0.1785,0.1583,0.1493,0.1669,0.1681,0.1676,0.1671,0.1367,0.1362,0.1359,0.1356,0,0.1071,0.1091,0.1102,0.1122,0.1134,0.1147,0.1181,0.1188,0.1279,0.1318,0.1411,0.1454,0.1553,0.1524,0.154,0.1524,0.1558,0.1509,0.1774,0.1381,0.1323,0.1334,0.1341,0.1325,0.1329,0.1331,0.1332,0.1334,0.1053,0.1061,0.1094,0.1105,0.1127,0.1141,0.1135,0.1172,0.1201,0.1236,0.1343,0.1362,0.1392,0.1332,0.1295,0.1268,0.1373,0.1303,0.1313,0.1328,0.1245,0.1184,0.1146,0.1148,0.115,0.1151,0.1153,0,0.1031,0.105,0.1071,0.1089,0.1106,0.1132,0.1143,0.1108,0.1113,0.1156,0.1209,0.1102,0.1053,0.1089,0.0981,0.0951,0.0941,0.092,0.0906,0.0937,0.0964,0.0863,0.0663,0.0662,0.0661,0.0659,0,0,0.1018,0.1016,0.1036,0.1043,0.1075,0.1084,0.1077,0.101,0.0995,0.0945,0.0943,0.1026,0.104,0.0851,0.0811,0.0726,0.0827,0.0686,0.1077,0.1092,0.1118,0.118,0.1058,0,0,0,0,0]},{"header":{"parameterUnit":"m.s-1","parameterCategory":2,"la1":30.2991,"la2":30.254,"lo1":-89.0895,"lo2":-89.0444,"dy":0.0017,"dx":0.0017,"nx":28,"ny":28,"refTime":"2024-10-03T09:00:00:Z","depth":"2","parameterNumber":3,"parameterNumberName":"V-component_of_CURRENTS"},"data":[0,0,0,0,0,0,0,0,0,0,0,0,0,0,0,0,0,0,0,0,0,0,0,0,0,0,0,0,0,0,0,0,0,0,0,0,0,0,0,0,0,0,0,0,0,0,0,0,0,0,0,0,0,0,0,0,0,0,0.0038,0.0038,0,0.0051,0.0051,0.0051,0.0057,0.0057,0.0057,0.0057,0.0053,0.0052,0.0052,0,0,0,0,0,0,0,0,0,0,0,0,0,0.0021,0.0021,0.0038,0.0038,0.0038,0.0051,0.0051,0.0051,0.0057,0.0057,0.0057,0.0057,0.0053,0.0052,0.0052,0,0,0,0,0,0,0,0,0,0,0,0,0,0.0031,0.0022,0.0038,0.0043,0.0043,0.0051,0.0051,0.0051,0.0057,0.0057,0.0057,0.0057,0.0053,0.0052,0.0052,0.0051,0,0,0.0052,0.0052,0,0,0,0,0,0,0,0,0.003,0.0031,0.0042,0.0043,0.0043,0.0052,0.0043,0.005,0.0057,0.0052,0.0057,0.0057,0.0051,0.0051,0.0054,0.0051,0.0051,0.0052,0.0052,0.0052,0.0051,0,0,0,0,0,0,0,0.0029,0.0031,0.0043,0.0042,0.0043,0.0045,0.0046,0.0045,0.0051,0.0052,0.0053,0.0054,0.0051,0.0054,0.0053,0.0051,0.0052,0.0052,0.0051,0.0051,0.0059,0.0059,0,0,0,0,0,0,0.0028,0.003,0.0043,0.0044,0.0036,0.0045,0.0047,0.0049,0.0051,0.0052,0.0054,0.0054,0.0054,0.0054,0.0053,0.0073,0.0052,0.0051,0.0051,0.0058,0.0059,0.0059,0,0,0,0,0,0,0.0027,0.0029,0.0042,0.0037,0.0039,0.0046,0.0048,0.005,0.0053,0.0053,0.0053,0.0057,0.0054,0.0053,0.0059,0.0072,0.0051,0.0051,0.0058,0.0059,0.0059,0.0099,0,0,0,0,0,0,0.0027,0.0029,0.0029,0.0037,0.0039,0.0049,0.0049,0.005,0.0054,0.0055,0.0055,0.0055,0.0054,0.0059,0.0059,0.0071,0.0051,0.0058,0.0058,0.0059,0.0098,0.0101,0.0104,0,0,0,0,0,0.0026,0.003,0.0029,0.003,0.004,0.005,0.0051,0.0056,0.0054,0.0058,0.0062,0.0055,0.0062,0.006,0.0059,0.0072,0.0057,0.0058,0.0059,0.0096,0.01,0.0104,0,0,0,0,0,0,0.0022,0.0031,0.003,0.0036,0.0042,0.0051,0.0054,0.0056,0.0062,0.0062,0.006,0.006,0.0068,0.0062,0.0059,0.0074,0.0058,0.0059,0.0087,0.009,0.0094,0.0092,0.0051,0,0,0,0,0,0.0021,0.0026,0.0033,0.0037,0.004,0.0046,0.005,0.0054,0.006,0.0063,0.0065,0.0066,0.007,0.0074,0.0073,0.0083,0.0075,0.0089,0.0092,0.0095,0.0093,0.0097,0.01,0.0061,0.0061,0.0061,0,0,0.002,0.0025,0.0028,0.0037,0.0041,0.0055,0.0049,0.0056,0.0073,0.0061,0.0081,0.0075,0.0073,0.0087,0.009,0.0085,0.0102,0.0096,0.0099,0.0094,0.0098,0.0102,0.0105,0.0062,0.0062,0.0062,0,0,0.0026,0.0026,0.0034,0.0042,0.0051,0.0059,0.0061,0.0072,0.0081,0.0096,0.0092,0.0095,0.0102,0.0107,0.0109,0.0127,0.0116,0.0126,0.0147,0.0152,0.0155,0.0158,0.0156,0.0158,0.0132,0.0132,0.0133,0,0.0024,0.0039,0.0037,0.005,0.0062,0.0062,0.008,0.009,0.0103,0.0113,0.0107,0.0117,0.0113,0.0132,0.0139,0.0136,0.0133,0.0136,0.0157,0.0159,0.0162,0.0159,0.0161,0.0134,0.0134,0.0134,0.0134,0,0.0041,0.0052,0.0058,0.0078,0.0089,0.0103,0.0119,0.0132,0.014,0.0148,0.0162,0.0157,0.0163,0.0163,0.0158,0.0174,0.0165,0.0159,0.0149,0.0168,0.0164,0.0165,0.0137,0.0137,0.0136,0.0136,0,0,0.004,0.0065,0.0069,0.0085,0.0107,0.012,0.0148,0.0173,0.0193,0.0197,0.0221,0.022,0.0208,0.0209,0.0201,0.0203,0.0217,0.019,0.0189,0.0191,0.0225,0.02,0.0199,0.0218,0.0219,0.0219,0.0217,0,0.0056,0.0087,0.0097,0.0133,0.0152,0.0166,0.0194,0.0215,0.0228,0.025,0.0243,0.0258,0.0231,0.0236,0.0233,0.0228,0.0222,0.0218,0.0202,0.0201,0.018,0.02,0.0208,0.0205,0.0218,0.0218,0.0218,0,0.0073,0.0094,0.013,0.0169,0.0178,0.0201,0.0243,0.0268,0.0293,0.0304,0.0308,0.03,0.0308,0.0279,0.0271,0.0272,0.0245,0.0232,0.0231,0.0193,0.0179,0.0186,0.0206,0.022,0.022,0.022,0.022,0,0.0081,0.0119,0.015,0.0163,0.0205,0.0227,0.0252,0.0282,0.0317,0.0338,0.0367,0.0353,0.0379,0.0336,0.0309,0.0293,0.0297,0.0273,0.0219,0.0217,0.0211,0.0208,0.025,0.025,0.025,0.025,0.025,0,0.0098,0.0122,0.0156,0.0176,0.0218,0.0241,0.0288,0.0312,0.0356,0.0415,0.0396,0.0441,0.0398,0.0395,0.0333,0.0292,0.0317,0.0223,0.0216,0.0225,0.0223,0.0223,0.022,0.025,0.025,0.025,0.025,0,0.01,0.0121,0.016,0.0206,0.0224,0.0254,0.0321,0.0367,0.0401,0.048,0.0497,0.053,0.0534,0.0473,0.0428,0.0349,0.029,0.0261,0.0269,0.0263,0.0194,0.0193,0.0194,0.0193,0.0192,0.0192,0.0191,0,0.0103,0.0125,0.0179,0.0212,0.0234,0.0284,0.0337,0.0385,0.0451,0.0543,0.0601,0.0624,0.0649,0.0565,0.0443,0.0325,0.0311,0.0236,0.0193,0.0196,0.019,0.019,0.019,0.0206,0.0205,0.0205,0.0205,0,0.0115,0.0134,0.0168,0.0233,0.0289,0.0359,0.044,0.05,0.0587,0.0654,0.076,0.0775,0.0706,0.0606,0.0436,0.0344,0.025,0.0224,0.0248,0.0212,0.0205,0.02,0.02,0.0202,0.0203,0.0203,0.0203,0.0203,0.0125,0.0153,0.0205,0.0264,0.0333,0.0444,0.0517,0.0618,0.0726,0.0843,0.0857,0.0868,0.0745,0.0522,0.0391,0.0241,0.024,0.0165,0.0167,0.0169,0.0164,0.0156,0.0143,0.0143,0.0143,0.0142,0.0142,0,0.0154,0.0192,0.0244,0.0332,0.0414,0.045,0.06,0.0686,0.0824,0.0886,0.0947,0.0801,0.068,0.0535,0.0314,0.0171,0.0158,0.0122,0.0147,0.015,0.0153,0.0148,0.0122,0.0121,0.0121,0.012,0,0,0.0179,0.0237,0.0266,0.0392,0.0455,0.0586,0.0678,0.0799,0.0867,0.0927,0.0908,0.0882,0.0701,0.0533,0.0369,0.0253,0.0224,0.0215,0.0245,0.0298,0.0302,0.0191,0.0187,0,0,0,0,0]}],[{"header":{"parameterUnit":"m.s-1","parameterCategory":2,"la1":30.2991,"la2":30.254,"lo1":-89.0895,"lo2":-89.0444,"dy":0.0017,"dx":0.0017,"nx":28,"ny":28,"refTime":"2024-10-03T09:00:00:Z","depth":"4","parameterNumber":2,"parameterNumberName":"U-component_of_CURRENTS"},"data":[0,0,0,0,0,0,0,0,0,0,0,0,0,0,0,0,0,0,0,0,0,0,0,0,0,0,0,0,0,0,0,0,0,0,0,0,0,0,0,0,0,0,0,0,0,0,0,0,0,0,0,0,0,0,0,0,0,0,0.0533,0.0534,0,0.0553,0.0552,0.0552,0.056,0.0561,0.0561,0.0561,0.0556,0.0555,0.0555,0,0,0,0,0,0,0,0,0,0,0,0,0,0.0468,0.0469,0.0533,0.0534,0.0535,0.0553,0.0552,0.0552,0.056,0.0561,0.0561,0.0561,0.0556,0.0555,0.0555,0,0,0,0,0,0,0,0,0,0,0,0,0,0.0489,0.047,0.0533,0.0544,0.0546,0.0553,0.0552,0.0552,0.056,0.0561,0.0561,0.0562,0.0556,0.0555,0.0555,0.0539,0,0,0.0552,0.0552,0,0,0,0,0,0,0,0,0.0488,0.0491,0.0542,0.0544,0.0545,0.0559,0.0528,0.0548,0.056,0.055,0.0561,0.0562,0.0557,0.0556,0.0552,0.0538,0.0538,0.0552,0.0552,0.0552,0.0551,0,0,0,0,0,0,0,0.0486,0.049,0.0536,0.0543,0.0545,0.0536,0.054,0.0531,0.0546,0.0551,0.0552,0.0562,0.0557,0.0553,0.0552,0.0538,0.0552,0.0552,0.0551,0.0551,0.0559,0.056,0,0,0,0,0,0,0.0495,0.0489,0.0536,0.0537,0.0522,0.0538,0.0541,0.055,0.0547,0.0548,0.0561,0.0562,0.0554,0.0553,0.0552,0.0574,0.0552,0.0551,0.055,0.0558,0.0559,0.056,0,0,0,0,0,0,0.0493,0.0498,0.0535,0.0517,0.0522,0.0539,0.0548,0.055,0.0563,0.0556,0.0556,0.0574,0.0554,0.0553,0.0555,0.0572,0.055,0.055,0.0557,0.0558,0.0559,0.0591,0,0,0,0,0,0,0.0491,0.0498,0.0506,0.0518,0.0523,0.0545,0.0548,0.055,0.0569,0.057,0.0567,0.0566,0.0555,0.0556,0.0555,0.0571,0.0549,0.0557,0.0558,0.0559,0.0589,0.0593,0.0596,0,0,0,0,0,0.0488,0.05,0.0506,0.0512,0.0534,0.0546,0.0547,0.0558,0.0569,0.0572,0.0572,0.0567,0.0563,0.0556,0.0554,0.057,0.0556,0.0558,0.0559,0.0588,0.0592,0.0596,0,0,0,0,0,0,0.0476,0.0502,0.0509,0.0528,0.054,0.055,0.0561,0.0567,0.057,0.0579,0.0568,0.0567,0.0579,0.0568,0.0561,0.0577,0.0562,0.0563,0.0584,0.0589,0.0592,0.0601,0.0549,0,0,0,0,0,0.0478,0.0493,0.0512,0.0527,0.0539,0.0552,0.0561,0.057,0.0577,0.058,0.0578,0.0579,0.058,0.058,0.0578,0.0579,0.0584,0.0591,0.0595,0.0598,0.0604,0.0629,0.0636,0.0565,0.0565,0.0565,0,0,0.0476,0.0495,0.0502,0.0525,0.054,0.0555,0.0558,0.0581,0.0592,0.0578,0.0594,0.0593,0.0585,0.0592,0.0597,0.0586,0.062,0.06,0.0602,0.0607,0.0632,0.0639,0.0645,0.0566,0.0566,0.0565,0,0,0.0483,0.0501,0.0517,0.0531,0.0561,0.0567,0.0578,0.0597,0.0607,0.0619,0.0617,0.0626,0.0625,0.0622,0.062,0.0641,0.0642,0.0645,0.0665,0.069,0.0696,0.0701,0.0714,0.072,0.0642,0.0642,0.0643,0,0.0483,0.0503,0.0521,0.0543,0.0557,0.0576,0.0592,0.0603,0.0618,0.0628,0.0632,0.0645,0.064,0.0647,0.0658,0.065,0.0662,0.0648,0.0695,0.0701,0.0706,0.0717,0.0724,0.0644,0.0644,0.0644,0.0644,0,0.0498,0.0518,0.0533,0.0563,0.0576,0.0596,0.0617,0.0631,0.0649,0.0662,0.0685,0.068,0.0688,0.069,0.0681,0.0712,0.0707,0.07,0.0685,0.0715,0.0725,0.0731,0.0647,0.0646,0.0646,0.0645,0,0,0.0496,0.0534,0.0541,0.0549,0.0589,0.0595,0.0625,0.0647,0.0661,0.0689,0.0709,0.0722,0.0733,0.0731,0.0723,0.0742,0.0788,0.0741,0.0741,0.0754,0.0841,0.0769,0.0769,0.0794,0.0795,0.0796,0.0833,0,0.0504,0.0532,0.0554,0.0573,0.0586,0.0611,0.0628,0.0653,0.0677,0.07,0.0724,0.0744,0.0745,0.0751,0.0774,0.0791,0.0807,0.0778,0.0809,0.081,0.0743,0.0775,0.08,0.0837,0.0839,0.084,0.084,0,0.0514,0.053,0.055,0.0567,0.0577,0.059,0.0614,0.0635,0.068,0.0702,0.0739,0.0761,0.0804,0.0794,0.085,0.0836,0.0844,0.0851,0.0853,0.0779,0.075,0.0801,0.0852,0.0851,0.085,0.0849,0.0849,0,0.0488,0.0524,0.0532,0.0543,0.057,0.0582,0.0601,0.064,0.0658,0.0714,0.0736,0.079,0.082,0.0857,0.0889,0.0879,0.0942,0.0926,0.0862,0.0857,0.0897,0.0891,0.0956,0.0956,0.0956,0.0955,0.0955,0,0.0477,0.0483,0.052,0.0521,0.0522,0.0565,0.0578,0.0599,0.0653,0.0681,0.074,0.0766,0.0841,0.0885,0.0907,0.0911,0.0962,0.0873,0.0865,0.0908,0.0903,0.0901,0.0894,0.0957,0.0957,0.0956,0.0956,0,0.0434,0.0465,0.0464,0.0495,0.0506,0.0506,0.0553,0.0562,0.0627,0.0666,0.0693,0.0772,0.0837,0.0886,0.0945,0.092,0.0936,0.0916,0.0962,0.0955,0.0828,0.0823,0.0853,0.0851,0.0849,0.0848,0.0847,0,0.0409,0.0412,0.0429,0.0425,0.0437,0.0458,0.0468,0.0533,0.0555,0.0662,0.0673,0.076,0.0808,0.0844,0.0895,0.0925,0.0905,0.0898,0.0859,0.0831,0.082,0.0818,0.0815,0.0844,0.0843,0.0843,0.0842,0,0.0353,0.0365,0.0361,0.0361,0.0364,0.0365,0.04,0.0415,0.0507,0.057,0.065,0.07,0.0757,0.0814,0.0836,0.0853,0.0901,0.0878,0.0881,0.0845,0.0819,0.081,0.0809,0.0836,0.0837,0.0837,0.0838,0,0.0307,0.0286,0.0295,0.0286,0.0295,0.029,0.0307,0.0361,0.0403,0.0539,0.0568,0.0672,0.076,0.0775,0.0805,0.0813,0.0792,0.0754,0.0764,0.0771,0.0725,0.0679,0.0653,0,0,0,0,0,0.0261,0.0239,0.0225,0.0215,0.0229,0.0239,0.0273,0.0306,0.0405,0.044,0.0513,0.0575,0.0641,0.0691,0.0682,0.0736,0.0773,0.0718,0.0728,0.0801,0.0808,0.076,0,0,0,0,0,0,0.023,0.0213,0.0203,0.0178,0.0173,0.0178,0.0202,0.0255,0.029,0.0401,0.0444,0.0527,0.0598,0.0653,0.0674,0.0684,0.0671,0.0781,0.0778,0.0797,0.0803,0.0809,0.0762,0,0,0,0,0]},{"header":{"parameterUnit":"m.s-1","parameterCategory":2,"la1":30.2991,"la2":30.254,"lo1":-89.0895,"lo2":-89.0444,"dy":0.0017,"dx":0.0017,"nx":28,"ny":28,"refTime":"2024-10-03T09:00:00:Z","depth":"4","parameterNumber":3,"parameterNumberName":"V-component_of_CURRENTS"},"data":[0,0,0,0,0,0,0,0,0,0,0,0,0,0,0,0,0,0,0,0,0,0,0,0,0,0,0,0,0,0,0,0,0,0,0,0,0,0,0,0,0,0,0,0,0,0,0,0,0,0,0,0,0,0,0,0,0,0,0.0051,0.0051,0,0.006,0.006,0.006,0.0076,0.0076,0.0076,0.0076,0.009,0.009,0.0091,0,0,0,0,0,0,0,0,0,0,0,0,0,0.0055,0.0055,0.0051,0.0051,0.0051,0.0059,0.006,0.006,0.0076,0.0076,0.0076,0.0076,0.009,0.009,0.0091,0,0,0,0,0,0,0,0,0,0,0,0,0,0.0058,0.0055,0.0051,0.0059,0.006,0.0059,0.006,0.006,0.0075,0.0076,0.0076,0.0076,0.009,0.009,0.0091,0.0086,0,0,0.0091,0.0092,0,0,0,0,0,0,0,0,0.0058,0.0058,0.0058,0.0059,0.0059,0.0066,0.0066,0.0069,0.0075,0.0071,0.0076,0.0077,0.0082,0.0083,0.0085,0.0087,0.0087,0.0092,0.0092,0.0092,0.0092,0,0,0,0,0,0,0,0.0058,0.0058,0.0055,0.0058,0.0059,0.0064,0.0065,0.0067,0.0075,0.0071,0.0072,0.0071,0.0082,0.0085,0.0085,0.0088,0.0092,0.0092,0.0092,0.0092,0.0079,0.0079,0,0,0,0,0,0,0.0054,0.0058,0.0055,0.0056,0.0058,0.0064,0.0065,0.0064,0.0075,0.0077,0.0071,0.0072,0.0084,0.0085,0.0086,0.0083,0.0092,0.0092,0.0092,0.008,0.0079,0.0078,0,0,0,0,0,0,0.0054,0.0054,0.0055,0.0056,0.0057,0.0064,0.0063,0.0064,0.0069,0.0075,0.0077,0.0074,0.0084,0.0086,0.0089,0.0083,0.0092,0.0092,0.008,0.0079,0.0079,0.0075,0,0,0,0,0,0,0.0054,0.0054,0.0051,0.0056,0.0056,0.0054,0.0062,0.0064,0.0067,0.0069,0.0078,0.0079,0.0085,0.0089,0.0089,0.0084,0.0093,0.0081,0.008,0.0079,0.0076,0.0074,0.0073,0,0,0,0,0,0.0054,0.0049,0.0051,0.0051,0.0053,0.0054,0.0055,0.0062,0.0067,0.0067,0.0075,0.0079,0.0083,0.0089,0.009,0.0084,0.0081,0.008,0.0079,0.0076,0.0074,0.0073,0,0,0,0,0,0,0.0048,0.005,0.0053,0.0048,0.0051,0.0056,0.0055,0.0061,0.0067,0.0069,0.0077,0.0079,0.0079,0.008,0.0086,0.0076,0.0081,0.008,0.0078,0.0076,0.0075,0.0082,0.0093,0,0,0,0,0,0.0045,0.0044,0.0047,0.0043,0.0043,0.0049,0.005,0.0056,0.0061,0.0064,0.0071,0.0074,0.0073,0.0075,0.0076,0.0073,0.0069,0.0067,0.0065,0.0064,0.0069,0.0059,0.0057,0.0075,0.0075,0.0075,0,0,0.0042,0.0042,0.0042,0.0042,0.0044,0.0047,0.0051,0.0052,0.0058,0.0064,0.0073,0.0071,0.0071,0.0069,0.0068,0.007,0.0055,0.0063,0.0062,0.0068,0.0058,0.0056,0.0055,0.0074,0.0074,0.0074,0,0,0.0035,0.0035,0.0032,0.0035,0.0037,0.0042,0.0043,0.0049,0.0055,0.0061,0.0063,0.0059,0.0063,0.006,0.0059,0.0048,0.0048,0.0045,0.0045,0.0034,0.0033,0.0032,0.0016,0.0013,0.0044,0.0044,0.0044,0,0.003,0.0032,0.0031,0.0031,0.0038,0.0041,0.0047,0.0049,0.0058,0.0064,0.0063,0.0063,0.0059,0.0056,0.0049,0.0046,0.004,0.0053,0.0033,0.0032,0.0031,0.0015,0.0012,0.0043,0.0043,0.0043,0.0043,0,0.0024,0.0028,0.0026,0.0032,0.0037,0.0042,0.0048,0.0055,0.0062,0.0066,0.0067,0.0058,0.0061,0.0049,0.0047,0.0035,0.0032,0.0034,0.004,0.0029,0.0013,0.001,0.0043,0.0043,0.0043,0.0043,0,0,0.001,0.0021,0.0022,0.0038,0.0043,0.0053,0.0058,0.007,0.0086,0.0076,0.009,0.0069,0.0065,0.0063,0.0052,0.0036,0.0013,0.0031,0.0031,0.002,-0.0013,-0.0015,-0.0019,0.0014,0.0013,0.0013,-0.0025,0,0.001,0.0023,0.0025,0.0047,0.0061,0.007,0.0082,0.0092,0.0099,0.011,0.0089,0.0097,0.007,0.0074,0.005,0.0033,0.0008,0.0023,-0.0005,-0.0006,-0.0002,-0.0021,0.0012,-0.0027,-0.0028,-0.0028,-0.0029,0,0.0006,0.0022,0.0042,0.0079,0.0085,0.0098,0.0133,0.0144,0.0149,0.0155,0.0145,0.0135,0.011,0.009,0.004,0.0053,0.0017,-0.0007,-0.0009,-0.0008,-0.0012,-0.0013,-0.0033,-0.0033,-0.0033,-0.0032,-0.0032,0,0.0016,0.0038,0.0063,0.0073,0.0104,0.0122,0.0142,0.0159,0.0182,0.0186,0.0201,0.0166,0.016,0.011,0.0051,0.0051,-0.0007,-0.001,-0.0052,-0.0053,-0.0036,-0.0035,-0.0054,-0.0054,-0.0054,-0.0054,-0.0054,0,0.0025,0.0046,0.0074,0.0091,0.0136,0.0147,0.0194,0.0207,0.0228,0.0255,0.0227,0.0233,0.0166,0.0124,0.0063,-0.0003,0.0,-0.0055,-0.0062,-0.0039,-0.0038,-0.0039,-0.0037,-0.0055,-0.0055,-0.0055,-0.0054,0,0.0037,0.0048,0.0086,0.0126,0.0143,0.018,0.0237,0.027,0.0281,0.0314,0.0318,0.0286,0.0233,0.0156,0.0075,0.0021,-0.0044,-0.0073,-0.0048,-0.0053,-0.0088,-0.0085,-0.0116,-0.0116,-0.0116,-0.0117,-0.0117,0,0.0048,0.0067,0.0118,0.015,0.0172,0.0226,0.0269,0.0299,0.0329,0.0344,0.0357,0.0316,0.0283,0.0168,0.0081,-0.0035,-0.0057,-0.0093,-0.0092,-0.0089,-0.0094,-0.0091,-0.0088,-0.0117,-0.0117,-0.0117,-0.0117,0,0.0079,0.0092,0.0124,0.018,0.023,0.0293,0.0345,0.037,0.0399,0.0409,0.0397,0.0337,0.0272,0.0173,0.0079,-0.0006,-0.0066,-0.0097,-0.0097,-0.0096,-0.0092,-0.0095,-0.0092,-0.0119,-0.0118,-0.0118,-0.0118,0,0.0102,0.0129,0.0162,0.0214,0.0276,0.0335,0.0367,0.04,0.0429,0.0432,0.0424,0.0354,0.031,0.0187,0.0101,0.0018,-0.0003,-0.0031,-0.0035,-0.0034,-0.0002,0.0016,0.0014,0,0,0,0,0,0.0126,0.0151,0.0196,0.0251,0.031,0.0345,0.0407,0.0429,0.045,0.0448,0.0436,0.0374,0.0254,0.0201,0.0119,0.0087,-0.0024,-0.0013,-0.0058,-0.0125,-0.0123,-0.01,0,0,0,0,0,0,0.0144,0.0178,0.0194,0.0266,0.0307,0.0377,0.0418,0.0436,0.0431,0.0435,0.0373,0.0348,0.0229,0.0298,0.0113,0.0089,0.0048,-0.0068,-0.007,-0.0125,-0.0124,-0.0123,-0.0099,0,0,0,0,0]}]]